EHI
14 17 23 27 29 27 21 13 8 7 8 6 3 1 0 0 0 0 0 0 0 0 0 0 0 0 0 0 0 0 0 0 0 0 0 0 0 0 0 0 0 0 0
15 16 22 27 28 28 23 15 9 7 7 8 6 3 1 0 0 0 0 0 0 0 0 0 0 0 0 0 0 0 0 0 0 0 0 0 0 0 0 0 0 0 0
12 11 17 26 28 27 25 17 9 5 6 8 7 4 2 1 0 0 0 0 0 0 0 0 0 0 0 0 0 0 0 0 0 0 0 0 0 0 0 0 0 0 0
8 6 11 22 27 26 25 19 10 5 4 6 7 5 2 1 0 0 0 0 1 1 0 0 0 0 0 0 0 0 0 0 0 0 0 0 0 0 0 0 0 0 0
4 4 8 18 24 24 23 18 11 5 3 4 5 4 2 1 0 0 0 1 2 1 0 0 0 0 0 0 0 0 0 0 0 0 0 0 0 0 0 0 0 0 0
2 2 6 14 19 20 20 16 11 6 4 3 5 4 2 0 0 0 0 1 2 2 0 0 0 0 0 0 0 0 0 0 0 0 0 0 0 0 0 0 0 0 0
4 3 4 9 13 17 18 15 10 7 5 4 5 4 2 1 0 0 1 2 3 2 1 1 0 0 0 0 0 0 0 0 0 0 0 0 0 0 0 0 0 0 0
4 3 3 5 9 12 14 12 8 5 5 5 5 4 2 2 2 2 2 3 4 3 3 2 1 0 0 0 0 0 0 0 0 0 0 0 0 0 0 0 0 0 0
2 2 3 3 4 6 7 6 4 3 4 5 4 3 2 2 4 3 3 3 3 4 4 2 1 0 0 0 0 0 0 0 0 0 0 0 0 0 0 0 0 0 0
1 2 2 1 1 1 2 2 1 1 2 3 2 1 1 2 3 3 3 2 2 3 3 1 0 0 0 0 0 0 0 0 0 0 0 0 0 0 0 0 0 0 0
1 1 1 1 0 0 0 0 0 0 1 1 0 0 0 1 2 2 1 1 1 1 1 0 0 0 0 0 0 0 0 0 0 0 0 0 0 0 0 0 0 0 0
0 0 1 1 0 0 0 0 0 0 0 0 0 0 0 1 2 1 0 0 0 0 0 0 0 0 0 0 0 0 0 0 0 0 0 0 0 0 0 0 0 0 0
0 0 0 0 0 0 0 0 0 0 0 0 0 0 0 1 1 0 0 0 0 0 0 0 0 0 0 0 0 0 0 0 0 0 0 0 0 0 0 0 0 0 0
0 0 0 0 0 0 0 0 0 1 0 0 0 0 0 0 0 0 0 0 0 0 0 0 0 0 0 0 0 0 0 0 0 0 0 0 0 0 0 0 0 0 0
0 0 0 0 0 0 0 0 0 0 0 0 0 0 0 0 0 0 0 0 0 0 0 0 0 0 0 0 0 0 0 0 0 0 0 0 0 0 0 0 0 0 0
0 0 0 0 0 0 0 0 0 0 0 0 0 0 0 0 0 0 0 0 0 0 0 0 0 0 0 0 0 0 0 0 0 0 0 0 0 0 0 0 0 0 0
0 0 0 0 0 0 0 0 0 0 0 0 0 0 0 0 0 0 0 0 0 0 0 0 0 0 0 0 0 0 0 0 0 0 0 0 0 0 0 0 0 0 0
0 0 0 0 0 0 0 0 0 0 0 0 0 0 0 0 0 0 0 0 0 0 0 0 0 0 0 0 0 0 0 0 0 0 0 0 0 0 0 0 0 0 0
0 0 0 0 0 0 0 0 0 0 0 0 0 0 0 0 0 0 0 0 0 0 0 0 0 0 0 0 0 0 0 0 0 0 0 0 0 0 0 0 0 0 0
0 0 0 0 0 0 0 0 0 0 0 0 0 0 0 0 0 0 0 0 0 0 0 0 0 0 0 0 0 0 0 0 0 0 0 0 0 0 0 0 0 0 0
0 0 0 0 0 0 0 0 0 0 0 0 0 0 0 0 0 0 0 0 0 0 0 0 0 0 0 0 0 0 0 0 0 0 0 0 0 0 0 0 0 0 0
0 0 0 0 0 0 0 0 0 0 0 0 0 0 0 0 0 0 0 0 0 0 0 0 0 0 0 0 0 0 0 0 0 0 0 0 0 0 0 0 0 0 0
0 0 0 0 0 0 0 0 0 0 0 0 0 0 0 0 0 0 0 0 0 0 0 0 0 0 0 0 0 0 0 0 0 0 0 0 0 0 0 0 0 0 0
0 0 0 0 0 0 0 0 0 0 0 0 0 0 1 1 0 0 0 0 0 0 0 0 0 0 0 0 0 0 0 0 0 0 0 0 0 0 0 0 0 0 0
0 0 0 0 0 0 0 0 0 0 0 0 0 1 2 2 1 0 0 0 0 0 0 0 0 0 0 0 0 0 0 0 0 0 0 0 0 0 0 0 0 0 0
0 0 0 0 0 0 0 0 0 0 0 0 0 1 2 2 1 0 0 0 0 0 0 0 0 0 0 0 0 0 0 0 0 0 0 0 0 0 0 0 0 0 0
Wind_Speed
4 7 8 7 7 9 11 12 11 11 11 12 12 12 12 11 11 11 11 11 11 11 11 11 11 11 12 12 14 14 14 15 15 15 14 13 13 14 13 13 14 10 15
4 7 8 6 6 7 9 11 11 11 11 11 12 13 12 12 11 11 11 11 11 11 11 11 11 11 12 13 13 13 14 14 14 14 12 10 11 13 15 15 14 9 14
4 7 7 5 5 6 7 9 11 11 11 11 12 12 12 12 12 11 11 11 11 11 11 11 11 11 12 12 12 13 13 12 11 10 9 6 8 13 14 14 13 14 14
4 5 6 5 5 5 6 7 10 11 11 11 11 12 12 12 12 12 11 11 10 11 11 11 11 11 12 12 11 11 11 9 6 4 4 6 7 12 13 13 13 13 13
5 3 6 6 4 4 5 6 8 10 11 11 11 11 12 12 12 12 11 10 10 10 10 11 11 11 11 11 10 10 8 5 2 1 5 7 6 10 12 12 12 12 12
4 3 4 5 4 4 4 5 6 8 11 11 11 10 11 12 13 12 10 10 10 10 11 12 12 11 11 10 9 8 5 2 2 2 5 7 5 10 11 11 11 11 11
4 2 2 4 4 4 4 5 6 7 9 11 11 11 11 11 11 11 10 10 11 12 12 12 12 12 11 10 9 7 3 2 2 3 5 6 6 10 10 10 10 10 10
4 3 1 3 4 4 5 6 6 7 8 10 11 11 10 11 11 10 10 10 11 12 13 12 12 11 10 9 8 6 3 4 1 4 6 6 8 10 9 9 9 9 9
4 3 2 2 3 5 5 7 7 7 8 9 10 10 10 9 10 11 11 11 11 12 12 12 12 11 10 9 7 4 3 3 2 2 7 5 8 9 9 8 8 7 7
3 2 2 1 2 3 4 6 8 8 8 8 9 10 9 9 9 10 11 11 11 11 11 11 11 11 10 8 7 5 3 3 2 2 4 6 9 9 9 8 7 7 6
4 3 2 2 2 2 3 5 7 8 9 8 8 9 9 7 8 8 10 10 11 12 11 11 11 10 9 7 7 6 3 3 2 2 4 9 10 10 9 8 7 6 5
5 4 2 2 2 2 3 3 4 5 6 6 6 8 7 6 6 8 11 12 12 11 11 11 10 9 7 4 5 5 3 4 2 3 5 12 11 10 9 8 7 6 5
5 4 4 3 2 2 2 2 2 3 4 6 7 8 6 5 5 5 5 7 8 9 7 7 7 5 5 4 4 4 5 4 2 3 6 11 10 10 9 8 7 6 5
5 5 4 5 3 3 2 2 3 3 3 4 5 7 6 4 5 5 5 6 6 5 6 6 4 6 6 6 6 6 6 3 2 3 6 11 10 10 10 9 8 7 6
5 5 5 5 4 3 2 2 3 3 3 3 4 5 6 5 5 5 5 6 6 5 6 6 6 6 6 6 6 6 5 4 3 4 4 10 10 10 10 10 9 8 8
5 5 5 4 4 3 2 2 2 3 3 2 3 5 6 5 5 5 6 6 6 5 5 6 6 6 5 4 5 5 5 4 4 4 5 6 9 10 11 11 10 9 8
5 5 5 4 3 3 3 3 2 2 3 3 3 4 5 5 6 5 5 5 6 6 6 5 5 4 4 4 4 4 3 4 4 5 6 5 5 8 10 11 11 10 9
4 5 5 4 4 3 2 3 2 2 2 2 2 3 5 5 5 5 5 5 5 5 5 5 4 4 3 3 3 3 3 3 4 5 5 6 5 5 7 10 10 10 10
4 5 4 4 3 3 2 2 2 2 2 2 2 2 4 4 5 5 5 5 6 5 5 5 4 4 4 4 3 3 3 3 3 4 4 6 6 6 5 7 9 9 9
4 4 4 4 3 3 2 1 1 2 2 2 2 3 4 4 4 4 4 5 5 5 5 5 5 4 4 4 3 3 3 3 3 3 4 4 5 6 6 6 5 6 8
4 4 4 4 3 2 1 1 2 2 2 2 2 3 4 4 4 4 4 5 5 5 6 6 5 5 4 4 3 2 2 3 4 4 3 3 4 5 5 6 5 4 4
4 4 4 4 3 2 2 1 2 2 2 2 2 2 4 5 5 4 4 4 5 5 6 6 5 4 4 5 4 3 1 2 3 4 4 4 5 4 5 6 6 6 5
5 4 4 5 4 3 2 1 1 1 1 1 2 2 3 4 4 4 5 5 5 5 6 6 6 6 5 4 4 4 4 4 2 3 5 5 4 4 4 4 6 6 6
5 4 4 5 4 3 2 1 2 2 3 3 2 3 3 3 4 4 4 5 5 4 5 5 5 5 5 5 4 3 3 2 3 2 2 4 5 5 6 5 5 6 6
5 5 4 5 5 4 2 2 1 2 2 2 2 2 2 3 3 4 4 4 4 4 5 5 5 5 5 5 4 3 3 2 2 3 3 3 3 4 5 6 5 5 6
6 6 5 5 5 4 3 2 2 2 3 3 3 2 2 2 2 3 3 3 4 4 5 5 6 6 5 6 4 4 4 3 3 3 4 4 4 4 5 5 5 5 5
Wind_Direction
78 114 123 127 141 153 155 155 154 155 154 155 153 151 147 143 138 134 131 129 127 126 123 121 118 114 109 105 101 97 94 93 92 90 85 82 83 82 81 84 80 73 76
80 114 117 125 137 144 156 158 157 158 159 160 161 158 156 153 149 145 143 139 136 134 132 129 124 120 115 110 107 105 103 103 103 101 91 79 79 81 77 77 83 82 78
70 108 115 111 132 141 149 160 161 162 164 165 167 165 164 162 159 155 151 148 146 143 140 134 128 124 118 113 112 112 114 118 122 123 112 100 89 88 87 86 86 84 82
55 104 116 109 125 145 151 157 166 169 170 171 170 171 169 167 165 162 159 158 154 148 143 135 128 123 121 119 119 120 126 134 142 149 119 105 98 98 96 92 89 86 83
38 71 114 120 123 144 157 159 169 175 174 175 175 174 175 172 170 168 167 163 157 148 142 137 131 128 125 124 126 130 140 154 180 163 94 94 93 102 98 93 90 88 86
31 41 105 124 138 146 162 170 171 180 180 179 179 178 180 177 175 172 170 164 155 147 143 140 136 134 131 131 133 140 157 191 263 125 106 104 102 105 102 98 96 93 89
10 24 128 137 158 162 166 178 181 184 188 185 183 183 183 182 178 173 170 161 154 150 148 146 144 141 139 140 143 152 183 258 271 97 98 102 112 115 111 107 101 96 93
2 348 179 174 176 184 183 187 189 192 191 191 187 188 186 185 179 172 169 163 161 157 155 152 150 148 148 149 153 164 214 279 273 113 103 108 126 123 118 113 108 102 98
357 352 333 215 194 195 198 196 195 197 199 197 192 189 188 184 179 174 169 166 166 163 160 158 157 156 157 156 157 172 227 277 312 123 119 120 135 131 126 121 116 111 104
332 339 329 288 238 211 206 206 202 200 202 203 199 191 186 181 180 176 171 170 169 166 164 163 164 163 162 161 162 180 231 282 261 133 118 136 145 140 136 133 128 120 111
316 307 296 287 275 250 223 214 205 203 202 203 200 192 184 183 181 178 180 174 173 169 167 168 168 164 159 164 169 186 222 252 226 136 120 144 153 151 148 145 139 132 125
311 308 307 296 267 253 246 220 212 208 199 199 198 191 190 188 184 180 177 174 174 170 168 169 168 163 160 167 178 190 226 237 211 134 137 154 161 162 161 158 154 150 146
299 307 314 305 270 243 236 228 220 213 198 199 201 192 189 184 178 173 161 167 170 168 168 168 164 174 186 179 175 198 227 226 187 140 149 161 167 171 170 170 170 170 168
308 309 315 310 289 256 236 231 229 217 203 199 199 193 184 178 175 170 166 169 172 175 173 169 178 190 199 192 184 199 218 214 171 136 158 166 172 179 180 182 184 187 187
305 304 303 306 299 277 253 235 242 226 207 203 196 196 183 177 177 173 171 169 174 175 177 175 186 192 197 196 195 197 202 200 179 148 157 174 177 185 188 192 195 200 200
302 301 300 294 295 278 257 244 244 238 216 208 202 200 184 178 175 174 176 173 175 176 179 181 192 193 195 191 198 196 193 190 184 159 157 178 183 187 194 201 204 206 206
307 305 306 293 286 273 258 254 256 245 223 206 207 201 191 180 178 175 178 178 178 176 178 183 194 192 192 188 195 198 194 193 187 171 164 173 184 194 198 206 208 209 211
311 309 316 311 301 285 258 250 255 259 237 215 208 200 196 188 181 178 178 183 181 174 177 183 188 184 187 182 186 196 200 196 196 186 176 176 179 188 200 206 207 211 215
317 314 314 313 300 287 269 250 244 249 238 221 215 198 190 192 188 183 184 186 181 176 179 186 185 177 180 178 183 192 197 200 205 204 194 186 183 180 184 200 203 208 213
324 320 313 309 304 300 284 261 241 252 240 216 209 208 188 187 186 186 187 191 183 179 182 183 183 180 178 174 186 197 202 208 206 209 210 192 182 181 180 184 191 207 210
336 329 326 316 305 300 272 244 228 238 236 219 210 206 196 188 182 182 190 191 191 190 188 187 181 181 181 168 167 196 221 215 214 209 206 196 191 188 184 184 187 191 202
334 331 326 318 307 293 269 257 239 240 235 217 220 213 204 192 186 188 192 196 199 193 188 187 179 181 186 175 165 160 200 239 233 219 212 206 198 191 199 199 193 192 190
334 333 328 320 310 295 280 270 261 247 250 234 220 212 216 206 191 188 199 201 203 197 195 190 184 181 186 188 179 171 177 205 208 223 216 209 203 196 201 205 205 199 195
334 329 327 323 320 314 287 247 230 226 234 236 219 208 210 208 193 191 201 204 206 199 192 192 189 187 182 190 199 206 199 170 171 211 230 218 212 209 205 209 209 209 204
350 341 326 329 337 336 321 277 261 247 238 240 225 196 207 207 199 196 197 196 205 201 193 191 192 192 192 195 198 200 215 228 201 189 222 227 231 220 211 208 206 207 206
2 352 351 346 340 343 338 340 317 277 249 228 226 207 212 212 204 204 205 201 208 205 199 196 195 196 201 204 206 203 196 201 207 206 216 218 230 233 219 212 211 211 209